| time (UTC) | temp F | wind direction | speed MPH | gust MPH | rain 1hr in | rain 24hr in | rain mn in | humidity % | barometer mb |
| 20260507180126 | 47 | 240 | 5.0 | 10.0 | 0.00 | 0.00 | 0.00 | 70 | 878.1 |
| 20260507170118 | 44 | 273 | 4.0 | 10.0 | 0.00 | 0.00 | 0.00 | 75 | 877.9 |
| 20260507160121 | 42 | 257 | 4.0 | 14.0 | 0.00 | 0.00 | 0.00 | 79 | 877.6 |
| 20260507150116 | 40 | 261 | 6.0 | 14.0 | 0.00 | 0.00 | 0.00 | 82 | 877.1 |
| 20260507140125 | 40 | 273 | 8.0 | 16.0 | 0.00 | 0.00 | 0.00 | 82 | 876.7 |
| 20260507120110 | 38 | 271 | 5.0 | 14.0 | 0.00 | 0.00 | 0.00 | 86 | 876.3 |
| 20260507110106 | 38 | 291 | 5.0 | 14.0 | 0.00 | 0.00 | 0.00 | 84 | 876.6 |
| 20260507100124 | 41 | 305 | 6.0 | 17.0 | 0.00 | 0.00 | 0.00 | 76 | 876.9 |
| 20260507090116 | 42 | 301 | 4.0 | 16.0 | 0.00 | 0.00 | 0.00 | 75 | 877.1 |
| 20260507080105 | 43 | 227 | 6.0 | 12.0 | 0.00 | 0.00 | 0.00 | 73 | 877.2 |
| 20260507070135 | 44 | 256 | 2.0 | 11.0 | 0.00 | 0.00 | 0.00 | 71 | 877.5 |
| 20260507050149 | 47 | 277 | 7.0 | 14.0 | 0.00 | 0.00 | 0.00 | 68 | 878.0 |
| 20260507040128 | 49 | 284 | 6.0 | 19.0 | 0.00 | 0.00 | 0.00 | 65 | 878.1 |
| 20260507030148 | 51 | 230 | 6.0 | 15.0 | 0.00 | 0.00 | 0.00 | 64 | 877.7 |
| 20260507020111 | 53 | 280 | 7.0 | 17.0 | 0.00 | 0.00 | 0.00 | 60 | 877.8 |
| 20260507010148 | 56 | 249 | 6.0 | 19.0 | 0.00 | 0.00 | 0.00 | 54 | 878.0 |
| 20260507000144 | 57 | 278 | 9.0 | 17.0 | 0.00 | 0.00 | 0.00 | 53 | 878.1 |
| 20260506230145 | 59 | 235 | 5.0 | 13.0 | 0.00 | 0.00 | 0.00 | 55 | 878.2 |
| 20260506221836 | 57 | 237 | 8.0 | 17.0 | 0.00 | 0.00 | 0.00 | 58 | 878.8 |
| 20260506210217 | 59 | 287 | 6.0 | 16.0 | 0.00 | 0.00 | 0.00 | 53 | 878.8 |
| 20260506200723 | 58 | 275 | 7.0 | 19.0 | 0.00 | 0.00 | 0.00 | 56 | 878.7 |
| 20260506190109 | 58 | 221 | 6.0 | 17.0 | 0.00 | 0.00 | 0.00 | 55 | 879.0 |